Home   Weather   Paradise   Past weeks

Flag for Canada Past Weather in Paradise, Newfoundland and Labrador, Canada — Yesterday and Last 2 Weeks

Now
23 °F

Partly sunny.


Feels Like: 10 °F
Forecast: 21 / 25 °F
Wind: 16 mph from Northwest

Location: St. John's

Current Time: Dec 7, 2016 at 3:03:53 pm

Latest Report: Dec 7, 2016 at 2:30 pm


Visibility: 15 mi

Pressure: 29.72 "Hg

Humidity: 74%

Dew Point: 16 °F

Location of ParadiseLocation

Past Weather in Paradise — Graph

°F

Paradise Temperature Yesterday

Maximum temperature yesterday: 23 °F (at 12:30 am)
Minimum temperature yesterday: 21 °F (at 7:30 am)
Average temperature yesterday: 23 °F

High & Low Weather Summary for the Past Weeks

 TemperatureHumidityPressure
High61 °F (Nov 22, 1:30 pm)100% (Nov 22, 9:30 pm)30.32 "Hg (Nov 22, 9:30 pm)
Low19 °F (Dec 7, 7:30 am)54% (Dec 5, 2:30 pm)29.28 "Hg (Dec 3, 1:30 pm)
Average34 °F85%29.78 "Hg
* Reported Nov 22 1:30 pm — Dec 7 1:30 pm, Paradise, Weather by CustomWeather, © 2016

Note: Actual official high and low records may vary slightly from our data, if they occured in-between our weather recording intervals... More about our weather records

Advertising

Paradise Weather History for the Previous 24 Hours

Scroll right to see more
 ConditionsComfort  
Time TempWeatherWind HumidityBarometerVisibility
1:30 pm
Wed, Dec 7
23 °FPartly sunny.17 mph68%29.70 "Hg15 mi
12:30 pm25 °FPartly sunny.22 mph69%29.69 "Hg15 mi
11:30 am23 °FPartly sunny.17 mph74%29.70 "Hg15 mi
10:30 am23 °FPartly sunny.16 mph68%29.71 "Hg15 mi
9:30 am21 °FPartly sunny.23 mph68%29.70 "Hg15 mi
8:30 am19 °FPartly sunny.26 mph73%29.67 "Hg15 mi
7:30 am19 °FPartly sunny.24 mph73%29.67 "Hg15 mi
6:30 am21 °FSnow flurries. Overcast.20 mph74%29.67 "Hg15 mi
5:30 am21 °FSnow flurries. Overcast.23 mph74%29.66 "Hg15 mi
4:30 am21 °FSnow flurries. Overcast.22 mph74%29.65 "Hg15 mi
3:30 am21 °FSnow flurries. Overcast.21 mph74%29.63 "Hg15 mi
2:30 am21 °FSnow flurries. Overcast.22 mph74%29.63 "Hg15 mi
1:30 am21 °FSnow flurries. Mostly cloudy.17 mph74%29.61 "Hg15 mi
12:30 am21 °FSnow flurries. Overcast.23 mph74%29.62 "Hg15 mi
11:30 pm
Tue, Dec 6
23 °FSnow flurries. Overcast.18 mph68%29.62 "Hg15 mi
11:25 pm23 °FSnow flurries. Overcast.20 mph68%29.62 "Hg15 mi
10:30 pm23 °FOvercast.22 mph74%29.62 "Hg15 mi
8:30 pm23 °FPassing clouds.22 mph68%29.63 "Hg15 mi
7:30 pm23 °FSnow flurries. Overcast.17 mph74%29.63 "Hg15 mi
6:30 pm23 °FSnow flurries. Overcast.21 mph74%29.62 "Hg15 mi
5:30 pm23 °FSnow flurries. Overcast.15 mph68%29.61 "Hg15 mi
3:30 pm23 °FPartly sunny.17 mph74%29.60 "Hg15 mi
Weather by CustomWeather, © 2016

See weather overviewHow to use our weather pages